Location: Chavenne
(46.6022°N, 3.2951°E)
Time: 00:50:18
(UTC+00:00)

Cosmos 1908 - Pass Details

Date: 09 April 2020
Orbit: 511 x 531 km, 82.5° (Epoch: 02 June)

Event Time Altitude Azimuth Distance (km) Brightness Sun altitude
Rises 19:05:07 0° 177° (S) 2,635 6.6 -7.1°
Reaches altitude 10° 19:07:16 10° 173° (S) 1,756 5.6 -7.4°
Maximum altitude 19:11:02 55° 95° (E) 635 3.3 -8.0°
Drops below altitude 10° 19:14:52 10° 17° (NNE) 1,783 6.0 -8.7°
Sets 19:17:03 0° 14° (NNE) 2,681 6.9 -9.0°
